DLH6VV EDDF-EDDV

Flight info

Callsign DLH6VV
Flight time 0h 37m
Altitude 22000
Route MARUN3W/25C MARUN Y153 WRB WRB1X
Aircraft A320/M-SDE2E3FGIJ1LORWXYZ/HB1

Departure

Time 2026-05-04 07:47
Airport Frankfurt Main Airport (EDDF)

Arrival

Time 2026-05-04 08:24
Airport Hannover Airport (EDDV)
Time Latitude Longitude Altitude Speed Heading
2026-05-04 07:22 50.04416 8.56276 358 ft 0 kts 162°
2026-05-04 07:33 50.04416 8.56275 356 ft 0 kts 162°
2026-05-04 07:34 50.04430 8.56268 363 ft 3 kts 161°
2026-05-04 07:34 50.04451 8.56258 360 ft 3 kts 165°
2026-05-04 07:35 50.04468 8.56251 362 ft 3 kts 174°
2026-05-04 07:35 50.04484 8.56255 359 ft 3 kts 235°
2026-05-04 07:35 50.04488 8.56263 360 ft 3 kts 249°
2026-05-04 07:35 50.04480 8.56231 360 ft 3 kts 249°
2026-05-04 07:36 50.04473 8.56200 359 ft 3 kts 250°
2026-05-04 07:36 50.04465 8.56168 359 ft 3 kts 250°
2026-05-04 07:38 50.04453 8.56119 363 ft 0 kts 250°
2026-05-04 07:40 50.04450 8.56104 361 ft 5 kts 250°
2026-05-04 07:40 50.04417 8.56038 356 ft 9 kts 196°
2026-05-04 07:40 50.04357 8.56047 357 ft 9 kts 164°
2026-05-04 07:41 50.04303 8.56081 359 ft 8 kts 146°
2026-05-04 07:41 50.04286 8.56157 357 ft 8 kts 105°
2026-05-04 07:41 50.04212 8.56222 356 ft 15 kts 160°
2026-05-04 07:41 50.04141 8.56309 357 ft 13 kts 90°
2026-05-04 07:42 50.04165 8.56435 357 ft 11 kts 70°
2026-05-04 07:42 50.04190 8.56538 357 ft 9 kts 70°
2026-05-04 07:42 50.04209 8.56621 361 ft 7 kts 70°
2026-05-04 07:42 50.04224 8.56684 357 ft 6 kts 70°
2026-05-04 07:43 50.04252 8.56800 359 ft 17 kts 70°
2026-05-04 07:43 50.04302 8.57011 363 ft 25 kts 70°
2026-05-04 07:43 50.04369 8.57290 361 ft 29 kts 69°
2026-05-04 07:43 50.04442 8.57595 370 ft 29 kts 70°
2026-05-04 07:44 50.04516 8.57900 368 ft 31 kts 69°
2026-05-04 07:44 50.04577 8.58164 366 ft 25 kts 70°
2026-05-04 07:44 50.04629 8.58380 372 ft 19 kts 69°
2026-05-04 07:44 50.04646 8.58548 369 ft 11 kts 118°
2026-05-04 07:45 50.04607 8.58586 369 ft 3 kts 154°
2026-05-04 07:45 50.04602 8.58589 369 ft 0 kts 164°
2026-05-04 07:45 50.04598 8.58591 372 ft 5 kts 164°
2026-05-04 07:45 50.04520 8.58626 371 ft 7 kts 161°
2026-05-04 07:46 50.04496 8.58620 371 ft 2 kts 238°
2026-05-04 07:46 50.04489 8.58594 371 ft 4 kts 247°
2026-05-04 07:46 50.04414 8.58285 372 ft 70 kts 249°
2026-05-04 07:46 50.04156 8.57210 366 ft 137 kts 249°
2026-05-04 07:47 50.03908 8.56163 529 ft 158 kts 250°
2026-05-04 07:47 50.03528 8.54598 1389 ft 154 kts 248°
2026-05-04 07:47 50.03142 8.52991 2093 ft 167 kts 249°
2026-05-04 07:49 49.95031 8.46603 7670 ft 227 kts 199°
2026-05-04 07:49 49.93450 8.45873 8301 ft 244 kts 199°
2026-05-04 07:49 49.91916 8.44742 9211 ft 247 kts 221°
2026-05-04 07:50 49.90889 8.42641 10166 ft 250 kts 248°
2026-05-04 07:50 49.90625 8.39968 11038 ft 257 kts 274°
2026-05-04 07:50 49.91263 8.37348 11893 ft 269 kts 303°
2026-05-04 07:50 49.92734 8.35487 12739 ft 282 kts 332°
2026-05-04 07:51 49.94588 8.34224 13259 ft 303 kts 334°
2026-05-04 07:51 49.96610 8.32917 13596 ft 327 kts 335°
2026-05-04 07:51 49.96826 8.32779 13628 ft 329 kts 335°
2026-05-04 07:51 49.98214 8.31893 13895 ft 341 kts 335°
2026-05-04 07:52 50.00440 8.30476 14517 ft 349 kts 335°
2026-05-04 07:52 50.02778 8.29326 15223 ft 358 kts 346°
2026-05-04 07:52 50.05278 8.28950 15935 ft 366 kts 359°
2026-05-04 07:52 50.07828 8.29416 16641 ft 373 kts 12°
2026-05-04 07:53 50.10328 8.30636 17357 ft 379 kts 18°
2026-05-04 07:54 50.28460 8.40177 21842 ft 407 kts 16°
2026-05-04 07:55 50.31145 8.41593 21999 ft 407 kts 17°
2026-05-04 07:55 50.33769 8.43007 22026 ft 389 kts 17°
2026-05-04 07:55 50.36282 8.44383 22032 ft 379 kts 17°
2026-05-04 07:55 50.38764 8.45751 22023 ft 377 kts 17°
2026-05-04 07:56 50.41238 8.47112 22021 ft 377 kts 17°
2026-05-04 07:56 50.43711 8.48468 22024 ft 376 kts 17°
2026-05-04 07:56 50.46182 8.49828 22023 ft 376 kts 17°
2026-05-04 07:56 50.48655 8.51165 22021 ft 376 kts 16°
2026-05-04 07:57 50.51146 8.52411 22020 ft 376 kts 15°
2026-05-04 07:57 50.53653 8.53598 22026 ft 376 kts 14°
2026-05-04 07:57 50.56160 8.54755 22020 ft 376 kts 14°
2026-05-04 07:57 50.58665 8.55909 22029 ft 376 kts 14°
2026-05-04 07:58 50.61174 8.57082 22025 ft 376 kts 14°
2026-05-04 07:58 50.63680 8.58271 22022 ft 376 kts 14°
2026-05-04 07:58 50.66181 8.59472 22016 ft 376 kts 14°
2026-05-04 07:58 50.68681 8.60680 22015 ft 376 kts 14°
2026-05-04 07:59 50.71189 8.61893 22016 ft 376 kts 14°
2026-05-04 07:59 50.73691 8.63102 22018 ft 376 kts 14°
2026-05-04 07:59 50.76196 8.64311 22013 ft 376 kts 14°
2026-05-04 07:59 50.78701 8.65523 22013 ft 376 kts 14°
2026-05-04 08:00 50.81204 8.66741 22013 ft 377 kts 15°
2026-05-04 08:00 50.83693 8.68043 22011 ft 377 kts 18°
2026-05-04 08:00 50.86149 8.69509 22011 ft 378 kts 19°
2026-05-04 08:02 51.03173 8.80547 22019 ft 377 kts 19°
2026-05-04 08:02 51.05617 8.82093 22019 ft 378 kts 19°
2026-05-04 08:02 51.08056 8.83642 22018 ft 378 kts 20°
2026-05-04 08:03 51.10495 8.85196 22016 ft 378 kts 20°
2026-05-04 08:03 51.12933 8.86751 22015 ft 378 kts 20°
2026-05-04 08:03 51.15372 8.88311 22014 ft 378 kts 20°
2026-05-04 08:03 51.17807 8.89873 22014 ft 378 kts 20°
2026-05-04 08:04 51.20243 8.91440 22014 ft 378 kts 20°
2026-05-04 08:04 51.22679 8.93010 22014 ft 377 kts 20°
2026-05-04 08:04 51.25114 8.94582 22018 ft 378 kts 19°
2026-05-04 08:04 51.27548 8.96151 22016 ft 377 kts 19°
2026-05-04 08:05 51.29986 8.97720 22016 ft 377 kts 19°
2026-05-04 08:05 51.32421 8.99293 22012 ft 377 kts 19°
2026-05-04 08:05 51.34853 9.00870 22003 ft 377 kts 19°
2026-05-04 08:05 51.37287 9.02448 22000 ft 377 kts 19°
2026-05-04 08:06 51.39722 9.04023 21996 ft 377 kts 19°
2026-05-04 08:06 51.42156 9.05600 21996 ft 377 kts 19°
2026-05-04 08:06 51.44588 9.07183 22000 ft 378 kts 20°
2026-05-04 08:06 51.47025 9.08771 22017 ft 378 kts 19°
2026-05-04 08:08 51.62880 9.23644 20928 ft 374 kts 31°
2026-05-04 08:08 51.65067 9.25882 20665 ft 370 kts 31°
2026-05-04 08:10 51.82321 9.43642 17067 ft 362 kts 31°
2026-05-04 08:11 51.84405 9.45803 16671 ft 360 kts 31°
2026-05-04 08:11 51.88590 9.50162 15869 ft 356 kts 31°
2026-05-04 08:11 51.90695 9.52353 15465 ft 355 kts 31°
2026-05-04 08:12 51.92768 9.54509 15067 ft 353 kts 31°
2026-05-04 08:12 51.94806 9.56626 14674 ft 352 kts 30°
2026-05-04 08:12 51.96862 9.58767 14271 ft 350 kts 31°
2026-05-04 08:12 51.98912 9.60902 13869 ft 350 kts 30°
2026-05-04 08:13 52.00951 9.63030 13427 ft 348 kts 31°
2026-05-04 08:13 52.02980 9.65156 13032 ft 346 kts 31°
2026-05-04 08:13 52.04991 9.67267 12639 ft 342 kts 30°
2026-05-04 08:13 52.06980 9.69357 12229 ft 339 kts 31°
2026-05-04 08:14 52.08955 9.71429 11826 ft 336 kts 31°
2026-05-04 08:14 52.10941 9.73515 11407 ft 334 kts 31°
2026-05-04 08:14 52.12887 9.75565 11001 ft 332 kts 31°
2026-05-04 08:16 52.25880 9.89285 8685 ft 304 kts 31°
2026-05-04 08:16 52.27635 9.91214 8434 ft 303 kts 32°
2026-05-04 08:16 52.29360 9.93156 8126 ft 300 kts 32°
2026-05-04 08:17 52.31066 9.95088 7727 ft 297 kts 32°
2026-05-04 08:17 52.32759 9.97005 7329 ft 295 kts 32°
2026-05-04 08:17 52.34440 9.98911 6940 ft 291 kts 32°
2026-05-04 08:17 52.36093 10.00783 6289 ft 288 kts 32°
2026-05-04 08:19 52.45980 9.99898 3754 ft 211 kts 273°
2026-05-04 08:19 52.46047 9.97491 3450 ft 212 kts 271°
2026-05-04 08:20 52.46082 9.95083 3140 ft 209 kts 271°
2026-05-04 08:20 52.46115 9.92775 2981 ft 195 kts 270°
2026-05-04 08:20 52.46126 9.90594 2702 ft 186 kts 271°
2026-05-04 08:20 52.46165 9.88546 2436 ft 172 kts 271°
2026-05-04 08:21 52.46215 9.86675 2210 ft 155 kts 272°
2026-05-04 08:21 52.46262 9.85029 2010 ft 136 kts 272°
2026-05-04 08:21 52.46305 9.83537 1827 ft 128 kts 272°
2026-05-04 08:21 52.46346 9.82093 1667 ft 126 kts 272°
2026-05-04 08:22 52.46388 9.80658 1494 ft 125 kts 273°
2026-05-04 08:22 52.46429 9.79241 1324 ft 124 kts 272°
2026-05-04 08:24 52.46710 9.69410 182 ft 115 kts 271°
2026-05-04 08:24 52.46740 9.68326 176 ft 70 kts 273°
2026-05-04 08:24 52.46755 9.67776 175 ft 36 kts 272°
2026-05-04 08:24 52.46766 9.67384 174 ft 33 kts 272°
2026-05-04 08:25 52.46749 9.67149 175 ft 30 kts 256°
2026-05-04 08:25 52.46688 9.66771 177 ft 21 kts 255°
2026-05-04 08:25 52.46629 9.66671 178 ft 13 kts 190°
2026-05-04 08:25 52.46562 9.66732 178 ft 11 kts 102°
2026-05-04 08:26 52.46558 9.66855 178 ft 11 kts 92°
2026-05-04 08:27 52.46397 9.68326 178 ft 22 kts 142°
2026-05-04 08:28 52.46266 9.68490 179 ft 25 kts 143°
2026-05-04 08:28 52.46119 9.68672 179 ft 28 kts 142°
2026-05-04 08:28 52.45959 9.68873 179 ft 30 kts 143°
2026-05-04 08:28 52.45822 9.69043 179 ft 25 kts 143°
2026-05-04 08:29 52.45763 9.69204 179 ft 15 kts 94°
2026-05-04 08:29 52.45758 9.69366 179 ft 14 kts 92°
2026-05-04 08:29 52.45746 9.69454 179 ft 5 kts 120°
2026-05-04 08:31 52.45773 9.69588 179 ft 0 kts 52°